| time (UTC) | temp F | wind direction | speed knots | gust knots | rain 1hr in | rain 24hr in | rain mn in | humidity % | barometer mb |
| 20260905224601 | 87 | 334 | 5.2 | 12.2 | 0.00 | 0.00 | 0.00 | 69 | 1011.6 |
| 20260905223030 | 88 | 309 | 5.2 | 13.9 | 0.00 | 0.00 | 0.00 | 69 | 1011.3 |
| 20260905221602 | 88 | 336 | 6.1 | 15.6 | 0.00 | 0.00 | 0.00 | 69 | 1011.0 |
| 20260905220112 | 90 | 344 | 6.1 | 12.2 | 0.00 | 0.00 | 0.00 | 69 | 1011.0 |
| 20260905214527 | 90 | 353 | 4.3 | 13.0 | 0.00 | 0.00 | 0.00 | 69 | 1010.9 |
| 20260905213109 | 91 | 354 | 4.3 | 12.2 | 0.00 | 0.00 | 0.00 | 69 | 1010.7 |
| 20260905211525 | 92 | 5 | 3.5 | 12.2 | 0.00 | 0.00 | 0.00 | 68 | 1010.6 |
| 20260905210106 | 92 | 356 | 5.2 | 13.0 | 0.00 | 0.00 | 0.00 | 67 | 1010.4 |
| 20260905204505 | 93 | 274 | 4.3 | 8.7 | 0.00 | 0.00 | 0.00 | 65 | 1010.6 |
| 20260905203047 | 93 | 264 | 3.5 | 8.7 | 0.00 | 0.00 | 0.00 | 64 | 1010.6 |
| 20260905201502 | 93 | 322 | 2.6 | 6.1 | 0.00 | 0.00 | 0.00 | 65 | 1010.6 |
| 20260905200013 | 91 | 320 | 2.6 | 6.1 | 0.00 | 0.00 | 0.00 | 67 | 1010.7 |
| 20260905194557 | 93 | 213 | 2.6 | 7.0 | 0.00 | 0.00 | 0.00 | 66 | 1010.8 |
| 20260905193018 | 93 | 293 | 2.6 | 7.8 | 0.00 | 0.00 | 0.00 | 67 | 1011.1 |
| 20260905191556 | 92 | 311 | 2.6 | 8.7 | 0.00 | 0.00 | 0.00 | 67 | 1011.4 |
| 20260905190109 | 93 | 192 | 3.5 | 7.0 | 0.00 | 0.00 | 0.00 | 67 | 1011.2 |
| 20260905184547 | 93 | 310 | 2.6 | 7.0 | 0.00 | 0.00 | 0.00 | 65 | 1011.6 |
| 20260905183108 | 93 | 226 | 1.7 | 5.2 | 0.00 | 0.00 | 0.00 | 66 | 1011.7 |
| 20260905181544 | 92 | 255 | 1.7 | 4.3 | 0.00 | 0.00 | 0.00 | 66 | 1012.1 |
| 20260905180050 | 92 | 180 | 1.7 | 7.8 | 0.00 | 0.00 | 0.00 | 66 | 1012.6 |
| 20260905174505 | 92 | 213 | 3.5 | 7.8 | 0.00 | 0.00 | 0.00 | 66 | 1012.7 |
| 20260905173053 | 91 | 181 | 0.9 | 7.8 | 0.00 | 0.00 | 0.00 | 67 | 1012.8 |
| 20260905171504 | 90 | 212 | 2.6 | 7.8 | 0.00 | 0.00 | 0.00 | 66 | 1013.1 |
| 20260905170029 | 90 | 196 | 1.7 | 6.1 | 0.00 | 0.00 | 0.00 | 67 | 1013.1 |
| 20260905164600 | 89 | 244 | 1.7 | 6.1 | 0.00 | 0.00 | 0.00 | 67 | 1013.3 |
| 20260905163028 | 88 | 215 | 2.6 | 7.0 | 0.00 | 0.00 | 0.00 | 68 | 1013.2 |
| 20260905161559 | 88 | 114 | 1.7 | 7.0 | 0.00 | 0.00 | 0.00 | 67 | 1013.3 |
| 20260905160111 | 87 | 222 | 2.6 | 8.7 | 0.00 | 0.00 | 0.00 | 69 | 1013.1 |
| 20260905154529 | 86 | 185 | 3.5 | 7.8 | 0.00 | 0.00 | 0.00 | 70 | 1013.2 |
| 20260905153110 | 86 | 236 | 1.7 | 7.8 | 0.00 | 0.00 | 0.00 | 70 | 1013.4 |
| 20260905151537 | 85 | 259 | 1.7 | 7.0 | 0.00 | 0.00 | 0.00 | 72 | 1013.0 |
| 20260905150051 | 84 | 154 | 2.6 | 10.4 | 0.00 | 0.00 | 0.00 | 73 | 1013.3 |
| 20260905144507 | 83 | 132 | 2.6 | 9.6 | 0.00 | 0.00 | 0.00 | 73 | 1013.6 |
| 20260905143047 | 82 | 149 | 1.7 | 6.1 | 0.00 | 0.00 | 0.00 | 77 | 1013.6 |
| 20260905141504 | 82 | 193 | 2.6 | 9.6 | 0.00 | 0.00 | 0.00 | 77 | 1013.1 |
| 20260905140016 | 81 | 157 | 0.0 | 3.5 | 0.00 | 0.00 | 0.00 | 81 | 1013.0 |
| 20260905134559 | 80 | 134 | 1.7 | 7.0 | 0.00 | 0.00 | 0.00 | 81 | 1012.9 |
| 20260905133014 | 79 | 93 | 0.0 | 7.0 | 0.00 | 0.00 | 0.00 | 82 | 1013.1 |
| 20260905131604 | 79 | 162 | 0.9 | 6.1 | 0.00 | 0.00 | 0.00 | 83 | 1013.2 |
| 20260905130109 | 78 | 141 | 1.7 | 7.0 | 0.00 | 0.00 | 0.00 | 84 | 1013.2 |
| 20260905124524 | 78 | 161 | 0.9 | 6.1 | 0.00 | 0.00 | 0.00 | 85 | 1013.3 |
| 20260905123113 | 78 | 176 | 0.9 | 5.2 | 0.00 | 0.00 | 0.00 | 89 | 1013.1 |
| 20260905121519 | 77 | 107 | 0.0 | 7.0 | 0.00 | 0.00 | 0.00 | 92 | 1012.8 |
| 20260905120045 | 76 | 212 | 0.0 | 0.0 | 0.00 | 0.00 | 0.00 | 93 | 1012.5 |
| 20260905114616 | 75 | 211 | 0.0 | 0.0 | 0.00 | 0.00 | 0.00 | 93 | 1012.4 |
| 20260905113029 | 75 | 211 | 0.0 | 0.0 | 0.00 | 0.00 | 0.00 | 93 | 1012.6 |
| 20260905111609 | 75 | 212 | 0.0 | 0.0 | 0.00 | 0.00 | 0.00 | 93 | 1012.3 |
| 20260905110007 | 75 | 212 | 0.0 | 0.0 | 0.00 | 0.00 | 0.00 | 93 | 1012.2 |
| 20260905104551 | 75 | 213 | 0.0 | 0.9 | 0.00 | 0.00 | 0.00 | 92 | 1012.2 |
| 20260905103003 | 76 | 211 | 0.0 | 0.9 | 0.00 | 0.00 | 0.00 | 92 | 1012.1 |
| 20260905101546 | 76 | 212 | 0.0 | 0.9 | 0.00 | 0.00 | 0.00 | 91 | 1012.1 |
| 20260905100108 | 76 | 211 | 0.0 | 0.9 | 0.00 | 0.00 | 0.00 | 91 | 1012.3 |
| 20260905094517 | 76 | 212 | 0.0 | 0.9 | 0.00 | 0.00 | 0.00 | 91 | 1012.5 |
| 20260905093058 | 76 | 211 | 0.0 | 0.0 | 0.00 | 0.00 | 0.00 | 91 | 1012.4 |
| 20260905091511 | 77 | 212 | 0.0 | 0.0 | 0.00 | 0.00 | 0.00 | 90 | 1012.2 |
| 20260905090025 | 77 | 212 | 0.0 | 0.0 | 0.00 | 0.00 | 0.00 | 90 | 1012.2 |
| 20260905084613 | 77 | 212 | 0.0 | 0.0 | 0.00 | 0.00 | 0.00 | 89 | 1012.2 |
| 20260905083020 | 77 | 212 | 0.0 | 1.7 | 0.00 | 0.00 | 0.00 | 90 | 1012.3 |
| 20260905081602 | 78 | 212 | 0.0 | 0.0 | 0.00 | 0.00 | 0.00 | 89 | 1012.1 |
| 20260905080141 | 78 | 213 | 0.0 | 0.9 | 0.00 | 0.00 | 0.00 | 88 | 1011.8 |
| 20260905074543 | 78 | 212 | 0.0 | 1.7 | 0.00 | 0.00 | 0.00 | 88 | 1011.8 |
| 20260905073114 | 78 | 212 | 0.0 | 2.6 | 0.00 | 0.00 | 0.00 | 88 | 1011.7 |
| 20260905071541 | 78 | 215 | 0.9 | 2.6 | 0.00 | 0.00 | 0.00 | 89 | 1011.5 |
| 20260905070057 | 78 | 205 | 0.9 | 3.5 | 0.00 | 0.00 | 0.00 | 89 | 1011.7 |
| 20260905064511 | 78 | 203 | 0.0 | 0.0 | 0.00 | 0.00 | 0.00 | 89 | 1011.7 |
| 20260905063054 | 79 | 203 | 0.0 | 0.0 | 0.00 | 0.00 | 0.00 | 89 | 1012.0 |
| 20260905061509 | 79 | 203 | 0.0 | 0.0 | 0.00 | 0.00 | 0.00 | 88 | 1012.3 |
| 20260905060039 | 79 | 203 | 0.0 | 0.0 | 0.00 | 0.00 | 0.00 | 87 | 1012.6 |
| 20260905054623 | 80 | 203 | 0.0 | 0.0 | 0.00 | 0.00 | 0.00 | 87 | 1012.5 |
| 20260905053022 | 80 | 203 | 0.0 | 0.0 | 0.00 | 0.00 | 0.00 | 86 | 1012.6 |
| 20260905051605 | 80 | 203 | 0.0 | 0.9 | 0.00 | 0.00 | 0.00 | 86 | 1012.6 |
| 20260905050002 | 81 | 203 | 0.0 | 0.9 | 0.00 | 0.00 | 0.00 | 85 | 1012.7 |
| 20260905044547 | 81 | 203 | 0.0 | 0.9 | 0.00 | 0.00 | 0.00 | 84 | 1012.6 |
| 20260905043116 | 81 | 203 | 0.0 | 1.7 | 0.00 | 0.00 | 0.00 | 84 | 1012.7 |
| 20260905041543 | 82 | 203 | 0.0 | 0.9 | 0.00 | 0.00 | 0.00 | 83 | 1012.6 |
| 20260905040055 | 82 | 203 | 0.0 | 2.6 | 0.00 | 0.00 | 0.00 | 83 | 1012.9 |
| 20260905034515 | 82 | 201 | 0.0 | 1.7 | 0.00 | 0.00 | 0.00 | 82 | 1012.7 |
| 20260905033052 | 82 | 201 | 0.0 | 0.9 | 0.00 | 0.00 | 0.00 | 82 | 1012.7 |
| 20260905031511 | 83 | 201 | 0.0 | 1.7 | 0.00 | 0.00 | 0.00 | 82 | 1012.9 |
| 20260905030035 | 83 | 200 | 0.0 | 1.7 | 0.00 | 0.00 | 0.00 | 81 | 1012.8 |
| 20260905024606 | 84 | 201 | 0.0 | 0.9 | 0.00 | 0.00 | 0.00 | 80 | 1012.9 |
| 20260905023031 | 84 | 200 | 0.0 | 0.9 | 0.00 | 0.00 | 0.00 | 79 | 1012.8 |
| 20260905021604 | 85 | 200 | 0.0 | 0.0 | 0.00 | 0.00 | 0.00 | 79 | 1012.6 |
| 20260905020001 | 85 | 200 | 0.0 | 0.9 | 0.00 | 0.00 | 0.00 | 78 | 1012.5 |
| 20260905014544 | 86 | 201 | 0.0 | 1.7 | 0.00 | 0.00 | 0.00 | 77 | 1012.4 |
| 20260905013114 | 87 | 205 | 0.0 | 2.6 | 0.00 | 0.00 | 0.00 | 76 | 1012.3 |
| 20260905011605 | 87 | 209 | 0.0 | 2.6 | 0.00 | 0.00 | 0.00 | 75 | 1012.2 |
| 20260905010054 | 88 | 213 | 0.0 | 0.9 | 0.00 | 0.00 | 0.00 | 74 | 1012.1 |
| 20260905004511 | 89 | 212 | 0.0 | 0.9 | 0.00 | 0.00 | 0.00 | 72 | 1012.2 |
| 20260905003055 | 90 | 212 | 0.0 | 1.7 | 0.00 | 0.00 | 0.00 | 71 | 1012.1 |
| 20260905001503 | 91 | 212 | 0.0 | 1.7 | 0.00 | 0.00 | 0.00 | 69 | 1012.2 |
| 20260905000013 | 92 | 211 | 0.9 | 2.6 | 0.00 | 0.00 | 0.00 | 67 | 1012.2 |
| 20260904234555 | 93 | 220 | 0.9 | 3.5 | 0.00 | 0.00 | 0.00 | 64 | 1012.3 |
| 20260904233030 | 94 | 213 | 0.9 | 3.5 | 0.00 | 0.00 | 0.00 | 63 | 1012.1 |
| 20260904231554 | 95 | 201 | 1.7 | 7.0 | 0.00 | 0.00 | 0.00 | 61 | 1011.9 |
| 20260904230106 | 95 | 222 | 0.9 | 7.0 | 0.00 | 0.00 | 0.00 | 60 | 1011.9 |